Wind_Speed
7 8 9 10 11 11 11 9 8 6 6 5 5 5 6 7 8 9 10 11 12 12 13 13 13 13 12 12 11 11 11 11 10 9 9 9 9 9 10 11 11 12 12
8 9 9 10 12 12 11 9 8 7 6 6 6 6 7 8 9 9 10 10 11 11 11 12 12 12 12 12 11 11 11 11 11 10 10 10 10 11 12 12 13 13 14
9 10 9 10 11 11 10 8 8 7 7 7 6 7 7 8 8 9 9 9 10 10 11 11 11 12 12 12 11 11 11 11 11 11 11 11 11 12 13 13 14 15 15
9 9 10 10 10 10 9 8 7 6 6 6 6 7 7 7 7 7 7 8 8 9 9 10 10 10 11 11 11 11 11 11 11 11 11 12 12 13 13 14 15 15 16
7 8 9 9 9 8 7 6 6 5 5 5 5 5 6 6 6 6 6 7 7 8 8 9 9 9 9 10 11 11 11 11 11 11 12 12 12 13 13 14 15 15 16
6 7 7 7 6 6 6 5 4 4 4 4 4 4 4 4 4 5 5 6 7 7 8 8 8 9 9 10 11 12 12 12 12 12 12 12 13 13 14 14 14 14 15
6 6 6 5 5 5 5 4 4 3 3 3 2 2 2 2 3 4 4 5 6 7 8 9 9 10 10 10 11 12 13 12 12 12 13 13 13 13 14 14 13 13 15
5 6 6 5 5 5 5 5 5 5 4 3 2 1 0 1 2 3 4 5 6 7 8 9 10 10 10 10 11 12 13 14 13 13 13 13 14 14 14 13 13 14 15
4 5 5 6 6 7 7 7 7 6 5 5 4 3 2 1 1 2 3 5 6 7 9 10 10 10 9 10 10 12 13 14 14 14 14 14 14 14 14 13 14 15 15
4 5 6 7 8 9 9 8 8 7 6 6 5 3 2 1 1 2 3 5 6 8 10 11 11 11 10 10 11 12 13 14 14 14 14 14 15 15 15 15 15 16 16
5 6 7 8 9 9 9 9 9 8 7 6 5 4 2 1 1 2 4 5 7 9 10 12 13 12 12 11 12 12 13 14 15 15 15 15 16 16 16 16 16 17 17
6 7 7 7 8 9 9 9 9 8 8 7 6 4 3 3 3 3 5 6 8 10 11 12 13 13 13 13 13 14 14 15 15 16 16 16 17 17 17 17 18 18 19
6 7 7 7 7 8 8 9 9 8 8 7 7 6 5 4 4 5 5 6 8 9 11 11 12 13 13 13 13 14 15 17 17 17 18 18 18 18 19 19 20 20 21
7 7 7 7 7 7 8 9 9 9 8 8 8 7 6 6 6 6 7 7 8 9 10 11 12 13 13 13 13 13 15 17 18 19 20 20 20 20 21 22 22 23 24
8 8 8 8 7 8 8 9 9 9 9 9 8 8 8 8 8 8 9 9 9 9 11 12 12 13 12 13 14 14 14 16 18 19 21 22 23 23 24 25 25 26 27
11 10 10 9 9 9 9 9 10 10 10 10 9 9 9 10 10 10 11 11 11 11 12 13 13 14 14 14 14 14 14 15 17 19 21 23 24 25 26 27 28 29 30
12 12 12 11 11 11 11 11 11 11 11 11 11 11 12 13 13 14 14 14 14 14 14 14 15 16 16 16 16 15 14 15 17 20 22 23 25 27 28 29 30 32 33
13 15 15 14 13 14 14 13 13 13 12 13 13 13 14 15 16 17 17 17 17 17 17 16 16 17 17 18 18 17 17 17 18 19 21 24 26 27 29 30 31 33 34
16 16 18 16 16 17 17 16 15 15 14 14 14 16 18 19 20 20 21 21 20 19 18 18 18 18 18 19 19 19 19 19 19 19 21 23 24 25 27 30 32 33 35
18 18 20 19 19 19 19 19 18 17 17 17 17 19 21 22 23 23 23 24 22 22 21 21 20 20 20 21 21 21 21 21 21 21 22 23 24 26 27 29 31 33 34
19 20 22 23 22 22 22 21 21 21 21 21 22 22 23 24 24 25 24 23 23 25 24 22 22 22 23 23 24 24 25 25 25 26 26 27 28 29 30 31 33 34 36
20 20 23 24 25 25 24 23 23 24 25 25 25 25 25 25 26 26 25 25 25 25 26 25 25 24 25 25 26 27 28 28 29 31 31 32 33 34 35 36 37 38 40
21 20 20 21 23 24 24 26 27 28 29 30 26 26 26 26 26 26 27 27 26 26 26 26 27 27 27 28 29 30 31 32 33 34 36 37 38 39 40 41 42 43 44
21 21 22 22 22 24 26 27 29 31 30 29 29 28 27 28 29 29 28 28 29 29 28 28 29 29 29 30 31 33 34 35 37 38 39 40 42 43 44 46 47 48 50
23 23 23 23 24 26 27 30 31 33 33 30 30 29 29 30 31 30 30 30 29 30 30 30 30 31 31 32 33 35 36 38 39 41 42 44 45 47 48 50 51 52 54
26 25 25 26 28 30 31 33 35 35 34 33 32 31 31 31 31 31 30 31 31 31 31 32 32 33 34 35 36 37 39 40 41 43 45 47 49 50 52 53 54 56 58
Wind_Direction
260 259 261 262 263 263 264 263 259 253 252 259 269 282 294 302 307 312 314 315 316 316 315 315 314 314 315 315 314 313 311 311 309 301 293 284 277 272 269 268 267 265 264
260 257 260 260 261 263 263 262 259 259 261 263 268 276 285 291 297 302 306 310 312 312 312 312 312 314 315 316 314 312 309 307 305 301 295 289 285 281 278 276 273 271 269
255 252 254 256 256 257 257 258 258 261 265 268 273 277 281 284 289 295 301 307 310 311 312 313 314 315 315 314 313 310 307 304 303 301 298 294 290 286 281 277 276 273 272
253 247 247 250 251 249 249 251 254 258 262 268 274 279 281 283 288 295 303 310 313 314 315 316 316 315 314 314 312 308 305 302 301 300 297 295 292 290 285 280 278 275 274
248 242 242 244 243 239 240 242 244 248 254 262 270 276 282 289 295 302 312 318 319 319 317 318 317 315 315 314 310 307 304 301 298 297 294 293 292 291 290 287 283 279 277
237 231 231 230 227 225 224 224 226 229 236 247 258 270 283 296 309 320 325 327 325 322 319 317 315 314 314 312 308 305 302 301 299 296 293 292 291 291 291 291 286 282 281
226 219 213 208 206 204 203 202 194 190 195 205 221 248 281 311 332 340 341 338 331 324 319 316 314 314 314 311 308 304 302 301 300 297 293 291 289 289 291 291 286 282 282
212 207 200 187 181 176 170 162 154 150 150 154 159 162 88 5 6 360 350 340 328 320 316 316 316 317 316 313 309 303 301 300 298 295 292 289 287 287 289 285 283 283 282
190 186 178 168 161 153 147 143 140 140 141 143 143 138 122 76 24 354 339 329 320 315 313 313 314 317 317 314 307 300 298 298 297 293 290 288 285 283 284 283 281 283 284
176 170 161 152 149 145 141 139 140 142 146 149 150 149 144 128 330 323 320 315 310 309 308 308 310 309 306 304 299 296 293 292 292 291 289 287 284 282 280 280 281 283 283
167 161 155 149 146 144 144 146 148 151 155 158 159 163 173 206 266 289 298 302 306 306 305 305 305 304 302 298 293 290 286 285 286 286 285 284 284 284 281 280 281 282 282
165 159 156 153 154 154 155 157 160 163 166 167 169 176 192 214 243 269 289 297 302 304 307 307 307 306 304 300 292 285 281 280 280 281 282 283 283 281 281 280 280 280 281
176 170 169 170 168 169 169 171 174 176 176 178 183 193 206 222 243 261 278 294 303 306 307 310 313 310 308 305 298 289 281 276 275 277 279 280 281 280 279 280 280 280 279
188 185 184 185 184 185 185 186 187 188 188 190 198 207 217 228 239 254 273 287 296 302 306 309 313 314 313 308 303 295 284 276 272 272 276 279 280 281 280 279 279 278 277
204 207 203 202 205 205 203 200 199 199 199 203 209 218 226 232 242 257 269 280 289 295 304 309 308 311 313 311 304 298 289 280 273 273 275 278 280 281 281 280 279 278 277
215 218 222 224 227 224 220 216 212 210 211 213 219 227 235 243 251 261 268 273 282 289 297 301 301 306 309 310 307 303 295 284 278 277 277 278 281 283 284 282 280 278 277
221 225 230 235 237 235 231 226 223 222 223 224 230 239 247 254 259 264 268 272 277 285 288 292 294 300 304 307 307 304 298 291 285 282 281 281 281 283 284 283 282 281 280
226 231 235 242 242 242 240 238 237 236 238 239 243 250 258 263 266 268 269 271 276 280 282 286 290 295 300 302 303 302 298 295 291 286 285 285 284 283 283 283 283 282 281
232 236 238 243 244 247 249 245 246 248 251 255 259 264 268 271 273 275 274 273 276 278 279 283 284 289 293 294 296 297 297 296 292 289 287 287 287 286 285 284 283 283 282
236 239 242 244 248 250 254 255 256 257 259 263 268 274 275 275 277 277 278 277 278 277 278 282 282 284 286 287 288 290 290 290 291 290 289 290 290 288 287 286 285 285 284
241 245 246 246 249 251 253 258 260 262 264 269 271 272 276 277 279 279 281 279 281 280 281 283 281 281 283 284 285 284 285 285 285 285 285 287 288 288 287 287 286 286 286
244 248 248 248 247 250 254 259 263 266 269 268 269 274 278 281 283 281 284 282 281 281 281 281 280 279 281 283 283 282 282 283 282 282 283 284 285 286 287 287 287 286 286
242 246 248 249 253 254 256 261 265 269 272 271 274 279 281 284 289 289 286 284 282 284 285 281 279 279 280 281 281 282 282 282 282 282 282 283 284 286 286 287 287 287 286
242 243 247 252 259 264 266 268 270 273 276 279 281 286 288 287 289 287 286 285 283 284 285 283 280 279 281 282 282 282 282 283 283 282 283 284 284 285 286 286 287 287 287
245 246 251 256 263 268 270 276 277 276 276 279 289 293 292 292 291 287 287 284 283 284 284 282 281 281 283 283 282 283 283 284 284 283 284 285 285 285 285 286 287 287 287
247 249 254 259 265 269 272 274 275 276 279 284 291 293 294 293 292 289 286 285 285 284 283 283 283 284 284 284 283 284 285 285 285 285 285 286 286 286 286 287 287 287 287
Height
5893 5893 5894 5894 5895 5896 5896 5897 5898 5899 5901 5902 5903 5903 5904 5904 5905 5905 5906 5906 5906 5907 5907 5907 5907 5907 5907 5907 5907 5907 5907 5907 5907 5907 5908 5908 5907 5907 5907 5907 5907 5907 5907
5891 5892 5892 5893 5894 5895 5895 5896 5896 5898 5899 5900 5902 5903 5903 5904 5904 5905 5905 5905 5905 5905 5906 5906 5905 5905 5906 5906 5906 5905 5905 5905 5906 5906 5906 5906 5906 5906 5906 5906 5906 5906 5906
5890 5890 5891 5892 5893 5893 5893 5894 5895 5896 5897 5899 5900 5901 5902 5903 5903 5904 5904 5904 5904 5904 5904 5904 5904 5904 5904 5904 5904 5904 5904 5904 5904 5904 5904 5904 5904 5904 5904 5904 5904 5904 5904
5888 5888 5889 5890 5891 5892 5892 5893 5894 5895 5896 5897 5898 5899 5900 5901 5902 5903 5903 5903 5903 5903 5903 5903 5903 5903 5903 5903 5903 5903 5903 5903 5903 5903 5903 5903 5902 5902 5902 5902 5901 5901 5901
5886 5887 5888 5889 5889 5890 5891 5892 5893 5894 5895 5896 5897 5898 5898 5899 5900 5901 5901 5901 5901 5901 5901 5901 5902 5902 5902 5902 5902 5902 5902 5901 5901 5901 5901 5900 5900 5900 5899 5899 5899 5899 5898
5885 5886 5887 5887 5888 5889 5890 5891 5892 5893 5894 5895 5896 5896 5897 5898 5899 5899 5899 5899 5899 5899 5899 5899 5900 5900 5900 5900 5900 5899 5899 5899 5899 5899 5898 5898 5897 5897 5897 5896 5896 5896 5896
5885 5885 5886 5886 5887 5888 5889 5890 5891 5892 5893 5894 5895 5896 5896 5897 5898 5898 5898 5898 5897 5897 5896 5896 5897 5898 5898 5898 5897 5897 5896 5896 5896 5896 5896 5895 5895 5894 5894 5893 5893 5893 5893
5884 5885 5885 5886 5887 5888 5889 5890 5891 5892 5893 5893 5894 5895 5896 5896 5896 5896 5896 5896 5896 5895 5894 5894 5895 5895 5896 5896 5895 5894 5893 5893 5893 5893 5892 5892 5892 5891 5891 5890 5890 5890 5890
5884 5884 5885 5885 5886 5887 5888 5889 5890 5891 5892 5893 5894 5895 5895 5895 5895 5895 5895 5895 5894 5893 5893 5892 5892 5893 5893 5893 5892 5891 5890 5890 5889 5889 5889 5889 5888 5888 5888 5888 5887 5887 5887
5883 5884 5885 5885 5886 5887 5888 5889 5890 5891 5892 5893 5894 5894 5894 5894 5894 5894 5894 5894 5893 5892 5891 5890 5890 5890 5890 5890 5889 5888 5887 5886 5886 5886 5886 5886 5885 5885 5885 5885 5885 5884 5884
5883 5884 5885 5886 5887 5887 5888 5889 5890 5891 5892 5893 5893 5893 5894 5893 5893 5893 5893 5892 5891 5890 5889 5888 5888 5888 5888 5887 5886 5885 5884 5883 5883 5882 5882 5882 5882 5882 5882 5882 5882 5882 5881
5883 5885 5886 5887 5887 5888 5889 5889 5890 5891 5891 5892 5893 5893 5893 5893 5892 5892 5892 5891 5890 5888 5887 5886 5885 5885 5885 5884 5883 5882 5881 5880 5879 5879 5879 5879 5879 5879 5879 5879 5878 5878 5878
5884 5885 5886 5887 5888 5888 5889 5889 5890 5891 5891 5892 5892 5892 5892 5892 5891 5891 5890 5889 5888 5887 5885 5884 5883 5882 5882 5881 5880 5879 5877 5876 5876 5875 5875 5875 5875 5875 5875 5875 5875 5875 5874
5884 5885 5886 5887 5887 5888 5889 5889 5889 5890 5890 5891 5891 5891 5890 5890 5890 5889 5888 5887 5886 5885 5883 5882 5881 5880 5879 5878 5877 5875 5874 5873 5872 5872 5872 5871 5871 5871 5871 5871 5871 5870 5870
5883 5884 5885 5886 5887 5888 5888 5889 5889 5889 5889 5890 5890 5889 5889 5889 5888 5887 5887 5885 5884 5883 5881 5880 5878 5877 5876 5875 5873 5872 5871 5870 5869 5869 5868 5868 5867 5867 5867 5866 5866 5866 5865
5882 5883 5884 5885 5886 5887 5887 5888 5888 5888 5888 5888 5888 5888 5887 5887 5886 5885 5884 5883 5882 5881 5879 5878 5876 5875 5873 5872 5870 5869 5868 5867 5866 5865 5864 5864 5863 5863 5862 5861 5861 5860 5859
5880 5882 5883 5884 5884 5885 5885 5886 5886 5886 5886 5886 5886 5885 5885 5884 5884 5883 5881 5880 5879 5878 5876 5875 5873 5872 5870 5868 5867 5865 5864 5863 5862 5861 5860 5859 5858 5858 5857 5856 5855 5854 5853
5877 5879 5881 5882 5882 5882 5883 5883 5884 5883 5883 5883 5883 5882 5882 5881 5880 5879 5878 5876 5875 5874 5872 5871 5870 5869 5867 5865 5864 5862 5861 5859 5858 5857 5856 5855 5854 5852 5851 5850 5849 5847 5846
5874 5876 5878 5879 5879 5880 5880 5880 5880 5880 5880 5880 5880 5879 5878 5877 5876 5875 5873 5872 5870 5869 5868 5867 5866 5865 5863 5862 5860 5859 5857 5855 5854 5852 5851 5850 5848 5847 5845 5844 5842 5840 5839
5870 5872 5873 5875 5876 5876 5876 5877 5877 5877 5876 5876 5875 5874 5873 5872 5870 5869 5867 5866 5865 5864 5863 5862 5861 5860 5859 5858 5856 5855 5853 5851 5849 5848 5846 5844 5843 5841 5839 5837 5835 5834 5832
5866 5867 5869 5870 5871 5871 5872 5872 5872 5872 5871 5870 5869 5868 5866 5864 5863 5863 5861 5860 5859 5858 5857 5856 5855 5854 5853 5852 5851 5849 5847 5846 5844 5842 5840 5839 5837 5835 5832 5830 5828 5826 5824
5861 5862 5863 5864 5865 5865 5865 5866 5865 5865 5864 5863 5861 5860 5859 5858 5857 5856 5854 5854 5853 5852 5851 5850 5849 5848 5847 5846 5844 5843 5841 5840 5837 5835 5833 5831 5829 5827 5824 5822 5820 5818 5815
5856 5856 5858 5859 5859 5859 5860 5860 5860 5859 5858 5856 5855 5854 5853 5852 5851 5850 5848 5847 5846 5846 5844 5843 5842 5841 5840 5839 5837 5836 5834 5832 5830 5828 5825 5823 5820 5818 5815 5813 5810 5808 5805
5851 5852 5853 5854 5854 5855 5854 5854 5853 5852 5851 5850 5848 5847 5846 5845 5844 5842 5841 5839 5838 5838 5837 5836 5835 5834 5832 5831 5829 5827 5826 5823 5821 5818 5816 5814 5811 5808 5806 5803 5800 5796 5793
5846 5848 5849 5849 5849 5849 5848 5847 5847 5845 5844 5843 5841 5840 5839 5838 5836 5834 5834 5832 5831 5830 5829 5828 5827 5825 5824 5822 5820 5818 5816 5814 5811 5809 5806 5803 5800 5798 5794 5791 5788 5784 5781
5841 5842 5843 5843 5843 5843 5842 5841 5840 5837 5836 5834 5833 5832 5831 5830 5828 5827 5825 5824 5823 5822 5821 5820 5818 5817 5815 5813 5811 5809 5806 5804 5801 5798 5795 5792 5788 5785 5782 5779 5775 5771 5767